SCP
0 0 0 0 0 0 0 0 0 0 0 0 0 0 0 0 0 0 0 0 0 0 0 0 0 0 0 0 0 0 0 0 0 0 0 0 0 0 0 0 0 0 0
0 0 0 0 0 0 0 0 0 0 0 0 0 0 0 0 0 0 0 0 0 0 0 0 0 0 0 0 0 0 0 0 0 0 0 0 0 0 0 0 0 0 0
0 0 0 0 0 0 0 0 0 0 0 0 0 0 0 0 0 0 0 0 0 0 0 0 0 0 0 0 0 0 0 0 0 0 0 0 0 0 0 0 0 0 0
0 0 0 0 0 0 0 0 0 0 0 0 0 0 0 0 0 0 0 0 0 0 0 0 0 0 0 0 0 0 0 0 0 0 0 0 0 0 0 0 0 0 0
0 0 0 0 0 0 0 0 0 0 0 0 0 0 0 0 0 0 0 0 0 0 0 0 0 0 0 0 0 0 0 0 0 0 0 0 0 0 0 0 0 0 0
0 0 0 0 0 0 0 0 0 0 0 0 0 0 0 0 0 0 0 0 0 0 0 0 0 0 0 0 0 0 0 0 0 0 0 0 0 0 0 0 0 0 0
0 0 0 0 0 0 0 0 0 0 0 0 0 0 0 0 0 0 0 0 0 0 0 0 0 0 0 0 0 0 0 0 0 0 0 0 0 0 0 0 0 0 0
0 0 0 0 0 0 0 0 0 0 0 0 0 0 0 0 0 0 0 0 0 0 0 0 0 0 0 0 0 0 0 0 0 0 0 0 0 0 0 0 0 0 0
0 0 0 0 0 0 0 0 0 0 0 0 0 0 0 0 0 0 0 0 0 0 0 0 0 0 0 0 0 0 0 0 0 0 0 0 0 0 0 0 0 0 0
0 0 0 0 0 0 0 0 0 0 0 0 0 0 0 0 0 0 0 0 0 0 0 0 0 0 0 0 0 0 0 0 0 0 0 0 0 0 0 0 0 0 0
0 0 0 0 0 0 0 0 0 0 0 0 0 0 0 0 0 0 0 0 0 0 0 0 0 0 0 0 0 0 0 0 0 0 0 0 0 0 0 0 0 0 0
0 0 0 0 0 0 0 0 0 0 0 0 0 0 0 0 0 0 0 0 0 0 0 0 0 0 0 0 0 0 0 0 0 0 0 0 0 0 0 0 0 0 0
0 0 0 0 0 0 0 0 0 0 0 0 0 0 0 0 0 0 0 0 0 0 0 0 0 0 0 0 0 0 0 0 0 0 0 0 0 0 0 0 0 0 0
0 0 0 0 0 0 0 0 0 0 0 0 0 0 0 0 0 0 0 0 0 0 0 0 0 0 0 0 0 0 0 0 0 0 0 0 0 0 0 0 0 0 0
0 0 0 0 0 0 0 0 0 0 0 0 0 0 0 0 0 0 0 0 0 0 0 0 0 0 0 0 0 0 0 0 0 0 0 0 0 0 0 0 0 0 0
0 0 0 0 0 0 0 0 0 0 0 0 0 0 0 0 0 0 0 0 0 0 0 0 0 0 0 0 0 0 0 0 0 0 0 0 0 0 0 0 0 0 0
0 0 0 0 0 0 0 0 0 0 0 0 0 0 0 0 0 0 0 0 0 0 0 0 0 0 0 0 0 0 0 0 0 0 0 0 0 0 0 0 0 0 0
0 0 0 0 0 0 0 0 0 0 0 0 0 0 0 0 0 0 0 0 0 0 0 0 0 0 0 0 0 0 0 0 0 0 0 0 0 0 0 0 0 0 0
0 0 0 0 0 0 0 0 0 0 0 0 0 0 0 0 0 0 0 0 0 0 0 0 0 0 0 0 0 0 0 0 0 0 0 0 0 0 0 0 0 0 0
0 0 0 0 0 0 0 0 0 0 0 0 0 0 0 0 0 0 0 0 0 0 0 0 0 0 0 0 0 0 0 0 0 0 0 0 0 0 0 0 0 0 0
0 0 0 0 0 0 0 0 0 0 0 0 0 0 0 0 0 0 0 0 0 0 0 0 0 0 0 0 0 0 0 0 0 0 0 0 0 0 0 0 0 0 0
0 0 0 0 0 0 0 0 0 0 0 0 0 0 0 0 0 0 0 0 0 0 0 0 0 0 0 0 0 0 0 0 0 0 0 0 0 0 0 0 0 0 0
0 0 0 0 0 0 0 0 0 0 0 0 0 0 0 0 0 0 0 0 0 0 0 0 0 0 0 0 0 0 0 0 0 0 0 0 0 0 0 0 0 0 0
0 0 0 0 0 0 0 0 0 0 0 0 0 0 0 0 0 0 0 0 0 0 0 0 0 0 0 0 0 0 0 0 0 0 0 0 0 0 0 0 0 0 0
0 0 0 0 0 0 0 0 0 0 0 0 0 0 0 0 0 0 0 0 0 0 0 0 0 0 0 0 0 0 0 0 0 0 0 0 0 0 0 0 0 0 0
0 0 0 0 0 0 0 0 0 0 0 0 0 0 0 0 0 0 0 0 0 0 0 0 0 0 0 0 0 0 0 0 0 0 0 0 0 0 0 0 0 0 0
Wind_Speed
4 4 4 4 4 4 4 4 5 6 6 6 6 7 7 7 7 6 6 11 10 10 10 10 9 9 9 8 9 9 8 8 8 9 9 9 9 9 10 9 10 10 10
3 3 4 4 4 4 4 4 5 5 5 5 6 7 7 6 7 6 6 8 11 10 10 9 9 9 9 9 9 8 8 8 9 9 9 9 10 10 10 10 10 10 9
3 3 3 4 4 4 4 4 5 4 5 5 6 6 6 6 6 6 6 5 6 10 10 10 9 9 9 9 9 9 8 8 9 9 9 10 10 10 9 10 10 10 9
3 3 3 3 3 3 3 3 3 4 4 4 4 5 5 5 6 6 5 5 4 4 8 10 9 9 9 9 9 10 9 9 9 9 9 9 9 9 8 9 9 9 9
3 3 3 3 3 3 3 3 3 3 4 4 4 4 4 4 4 4 6 6 5 5 5 7 9 10 10 9 9 9 9 9 8 8 8 8 8 8 8 8 8 8 9
3 3 3 3 3 3 3 3 4 3 3 3 4 4 4 4 3 4 4 5 4 5 5 4 4 6 9 9 8 8 8 8 8 8 9 8 8 8 7 8 8 8 8
2 2 2 3 2 3 3 3 4 4 3 2 2 3 4 4 4 3 3 3 4 4 4 4 3 3 4 8 8 7 8 8 8 8 8 8 8 7 7 7 7 7 8
2 2 3 3 3 3 3 3 3 2 2 1 0 1 2 3 2 2 2 2 3 3 3 3 3 3 3 3 7 7 7 7 7 7 7 7 7 7 7 7 7 7 7
2 2 2 3 2 2 3 2 2 2 1 1 1 2 0 1 2 2 2 2 2 2 2 2 3 3 3 3 4 6 6 6 6 6 6 6 6 7 6 6 6 6 6
2 2 2 2 2 2 2 2 2 1 1 1 1 1 2 1 1 2 2 2 2 1 1 1 2 2 3 3 5 7 7 6 6 6 6 5 5 5 5 5 6 5 5
2 2 2 2 2 2 2 2 1 1 1 1 1 1 1 1 1 1 1 1 1 1 1 1 1 1 2 3 3 6 7 7 7 6 6 5 5 5 5 5 5 5 5
2 3 2 2 2 1 1 1 1 2 1 1 1 1 1 1 1 1 1 1 1 1 1 1 1 1 1 2 4 6 6 6 6 6 7 6 5 5 5 5 5 5 5
2 2 2 2 2 2 1 1 1 1 2 1 1 1 1 1 1 1 1 1 1 1 1 1 1 1 1 2 3 5 6 5 5 5 6 6 5 4 4 4 4 4 5
2 2 2 2 2 2 2 1 1 1 1 1 1 0 0 0 1 1 1 1 1 1 1 1 1 1 1 2 3 2 4 5 4 5 6 6 5 4 4 4 4 4 4
2 2 2 2 3 2 2 2 1 1 1 1 1 1 1 1 1 1 1 2 2 1 1 1 1 2 1 2 2 2 3 6 5 4 5 5 6 5 5 5 5 5 5
2 2 3 3 3 3 3 2 2 1 2 1 1 1 1 1 1 1 1 1 2 2 0 1 1 1 2 2 3 1 3 6 5 4 4 5 5 5 5 5 5 5 5
3 3 3 3 3 3 3 3 2 2 2 2 2 2 2 1 2 1 1 1 1 1 1 1 2 1 2 2 3 2 1 2 4 5 4 4 4 5 5 5 5 5 4
2 3 3 3 3 3 3 3 3 3 2 2 2 2 2 2 2 2 1 2 1 2 2 2 2 2 2 2 2 1 1 1 2 6 4 3 3 4 4 4 4 4 4
2 3 3 3 3 3 3 3 3 3 3 2 2 2 2 3 3 3 2 2 2 2 2 2 2 2 1 2 2 1 1 1 1 4 5 3 3 3 3 3 3 3 3
2 2 3 3 3 3 3 3 3 2 2 2 2 2 2 2 3 3 3 3 2 3 3 2 2 2 2 2 2 2 2 2 1 2 2 2 4 4 3 2 2 2 2
2 2 2 2 2 2 1 2 3 3 2 2 2 2 1 1 1 0 1 2 3 3 3 2 2 2 2 2 2 2 2 2 1 1 1 2 2 2 3 3 3 1 1
3 2 2 2 2 2 2 1 2 3 3 3 2 2 2 3 3 3 2 1 1 3 3 3 3 3 3 3 2 3 2 2 2 1 2 1 1 1 1 0 3 3 1
3 3 2 2 2 3 4 3 3 3 3 3 3 3 2 2 3 3 5 5 3 1 2 3 3 3 3 3 3 3 3 2 2 1 2 2 2 1 1 2 4 3 1
3 3 3 2 2 2 3 4 4 5 3 3 3 3 3 3 3 3 3 3 3 3 3 4 3 2 2 1 2 2 2 2 1 1 2 2 2 2 1 1 5 3 2
3 3 3 3 3 3 4 4 4 4 4 4 4 4 4 3 4 3 3 3 3 3 3 2 1 2 3 1 1 2 3 3 3 2 2 2 2 2 2 2 4 6 3
3 3 3 3 3 3 4 4 5 3 4 4 4 4 3 3 4 5 5 4 3 3 3 4 4 4 4 4 4 4 3 3 3 2 2 2 2 2 3 3 2 3 3
Wind_Direction
81 83 83 78 78 84 91 83 82 80 76 75 74 73 74 72 76 75 77 69 66 66 68 69 71 71 67 64 64 70 72 73 77 76 76 73 71 70 72 73 75 73 72
83 86 86 80 77 79 80 87 86 84 79 77 75 71 69 72 75 78 80 79 67 61 62 65 67 68 67 66 66 71 73 75 78 78 76 74 71 69 71 71 72 72 70
94 97 88 91 91 96 98 90 89 85 85 85 80 74 69 63 68 70 72 74 79 69 58 59 65 68 67 66 67 69 72 75 77 78 77 74 71 71 73 71 71 71 69
91 88 92 94 93 94 93 93 92 90 89 84 80 77 75 68 65 69 75 76 68 69 70 61 62 63 63 65 67 67 72 78 80 78 79 78 76 74 73 74 72 72 69
97 101 95 103 100 97 94 95 88 88 89 87 86 81 75 68 62 68 71 70 70 66 71 78 69 61 61 62 64 64 69 75 80 80 78 79 80 78 76 76 77 76 73
93 108 114 114 109 107 101 104 102 95 88 92 91 86 82 80 69 62 63 66 65 68 65 68 82 78 66 60 62 65 67 70 79 82 80 78 78 78 81 81 80 79 76
108 112 115 116 113 106 110 114 110 111 111 112 114 109 99 85 70 71 64 68 73 68 72 67 65 73 88 74 57 63 68 72 75 79 82 82 82 81 82 81 80 79 77
122 130 136 127 120 108 116 119 124 126 122 186 211 168 144 121 89 74 77 65 69 73 62 67 76 77 71 80 68 58 58 69 72 75 77 78 80 83 85 83 80 80 79
131 143 139 136 133 140 135 143 153 168 161 170 299 307 289 103 120 114 83 79 68 60 63 58 67 70 75 77 85 71 52 59 70 79 81 82 83 85 85 87 85 83 79
135 147 154 153 145 138 140 152 153 163 204 198 157 339 344 21 247 143 133 105 83 62 54 64 69 71 76 82 78 59 53 56 63 69 76 82 88 89 89 90 88 87 82
140 150 158 156 150 147 149 145 158 198 230 271 264 170 124 146 260 251 152 141 127 92 64 36 88 81 79 81 85 76 66 58 58 57 57 71 78 82 85 83 83 80 79
152 147 152 161 156 154 165 172 188 192 244 264 279 267 245 234 240 236 211 175 118 92 86 53 55 84 86 88 82 81 76 64 56 55 52 55 66 75 80 80 78 76 75
167 158 161 172 153 161 166 174 190 201 218 234 268 299 308 313 295 275 216 189 142 133 122 120 85 96 100 101 99 102 94 76 64 60 57 54 56 63 70 72 73 74 76
173 167 173 174 163 167 170 182 215 196 211 201 210 225 249 302 297 268 247 213 194 166 166 117 102 101 100 99 83 133 105 95 80 67 62 60 59 64 77 73 69 70 76
173 178 176 173 174 173 180 189 209 206 210 226 217 195 203 176 221 243 250 248 250 222 152 125 131 117 123 98 104 135 108 100 95 80 72 66 63 68 75 75 72 69 70
182 181 180 178 180 184 187 185 203 221 215 191 222 224 203 202 178 197 225 252 268 265 187 118 119 120 114 132 115 113 95 106 99 88 79 69 66 74 79 78 73 67 67
193 196 192 194 192 192 187 180 206 204 222 215 207 207 201 198 197 189 187 204 217 225 180 132 127 128 136 133 126 136 125 138 114 108 94 82 77 76 75 79 75 70 68
197 207 201 198 195 200 204 199 199 205 217 229 227 217 206 185 198 192 190 197 195 205 186 167 161 141 147 137 131 139 145 130 117 113 114 98 88 84 76 75 72 69 68
195 204 200 198 203 209 209 212 211 211 216 226 229 228 212 194 194 183 196 197 188 176 174 181 163 145 168 150 157 166 172 161 153 127 134 138 123 104 92 83 76 67 62
199 210 203 197 204 207 208 205 211 215 220 218 214 219 214 201 209 196 197 199 186 174 176 186 178 171 166 161 193 193 184 166 184 150 138 147 148 151 142 123 106 86 67
199 201 202 202 197 204 210 225 210 211 218 215 207 209 186 107 42 194 207 196 186 188 184 190 187 180 181 184 205 206 204 190 172 189 194 183 177 182 167 164 164 139 112
191 177 195 194 186 176 119 153 246 215 216 220 221 212 178 171 153 148 111 75 216 206 199 194 203 207 211 210 214 214 210 212 210 172 226 225 202 204 191 122 105 124 134
184 180 191 194 196 159 146 170 214 231 231 234 228 212 196 173 194 184 164 170 173 217 257 237 221 226 222 214 204 209 213 234 263 176 218 240 213 223 202 117 121 131 134
192 196 196 190 200 165 154 178 208 227 226 228 227 221 205 188 177 197 180 178 184 185 210 229 232 239 241 233 218 240 241 226 242 181 229 261 241 235 225 193 142 152 168
202 204 201 203 205 189 166 175 210 223 224 224 224 221 221 203 144 187 206 195 196 181 153 157 2 35 55 55 259 214 205 214 231 214 203 252 264 260 246 223 158 165 192
212 212 208 219 220 213 170 180 215 224 225 223 222 216 203 218 172 192 214 212 215 206 191 177 186 189 197 183 200 227 227 231 245 237 183 228 251 256 245 215 208 195 203